Location: Madrid
(40.4167°N, 3.7036°W)
Time: 02:28:45
(UTC+00:00)

ISS - Pass Details

Date: 10 May 2026
Orbit: 414 x 424 km, 51.6° (Epoch: 15 May)

Event Time Altitude Azimuth Distance (km) Brightness Sun altitude
Rises 20:25:29 0° 242° (WSW) 2,339 0.4 -11.7°
Reaches altitude 10° 20:27:36 10° 247° (WSW) 1,480 -0.6 -12.0°
Maximum altitude 20:30:52 55° 327° (NNW) 500 -3.0 -12.5°
Drops below altitude 10° 20:34:09 10° 46° (NE) 1,489 -1.1 -13.0°
Sets 20:36:17 0° 51° (NE) 2,355 -0.1 -13.3°
